FW0074 Weather Reports


time (UTC)temp
C
wind
direction
speed
KPH
gust
KPH
rain 1hr
cm
rain 24hr
cm
rain mn
cm
humidity
%
barometer
mb
20260906213017 29 135 17.7 32.2 0.00 0.00 0.00 40 1019.3
20260906212016 28 113 16.1 24.1 0.00 0.00 0.00 40 1019.0
20260906211016 28 135 16.1 24.1 0.00 0.00 0.00 44 1019.3
20260906210016 28 113 16.1 22.5 0.00 0.00 0.00 42 1019.2
20260906205016 29 113 17.7 24.1 0.00 0.00 0.00 42 1019.4
20260906204036 28 135 11.3 22.5 0.00 0.00 0.00 42 1019.1
20260906203016 28 113 9.7 19.3 0.00 0.00 0.00 40 1019.3
20260906202016 28 135 14.5 22.5 0.00 0.00 0.00 42 1019.5
20260906201016 28 135 16.1 24.1 0.00 0.00 0.00 43 1019.5
20260906200016 28 113 12.9 19.3 0.00 0.00 0.00 42 1019.6
20260906195016 28 135 16.1 20.9 0.00 0.00 0.00 43 1019.8
20260906194016 28 90 14.5 19.3 0.00 0.00 0.00 43 1019.6
20260906193017 27 113 11.3 17.7 0.00 0.00 0.00 45 1019.5
20260906192016 27 135 12.9 25.7 0.00 0.00 0.00 47 1019.4
20260906191016 27 113 11.3 17.7 0.00 0.00 0.00 48 1019.6
20260906190016 27 135 12.9 24.1 0.00 0.00 0.00 48 1019.8
20260906185036 26 90 9.7 16.1 0.00 0.00 0.00 47 1019.5
20260906184016 26 90 9.7 20.9 0.00 0.00 0.00 49 1019.6
20260906183016 26 135 11.3 19.3 0.00 0.00 0.00 50 1019.9
20260906182016 26 135 9.7 17.7 0.00 0.00 0.00 48 1020.7
20260906181016 26 135 8.0 16.1 0.00 0.00 0.00 50 1020.7
20260906180016 26 135 9.7 20.9 0.00 0.00 0.00 49 1020.4
20260906175016 26 135 9.7 14.5 0.00 0.00 0.00 49 1020.6
20260906174016 26 90 9.7 19.3 0.00 0.00 0.00 50 1020.6
20260906173036 25 113 8.0 14.5 0.00 0.00 0.00 50 1020.7
20260906172016 25 90 6.4 14.5 0.00 0.00 0.00 51 1020.7
20260906171036 25 135 6.4 16.1 0.00 0.00 0.00 53 1020.8
20260906170016 24 113 4.8 9.7 0.00 0.00 0.00 55 1020.3
20260906165056 23 158 4.8 9.7 0.00 0.00 0.00 58 1021.0
20260906164016 23 135 6.4 14.5 0.00 0.00 0.00 61 1020.6
20260906163016 22 180 3.2 12.9 0.00 0.00 0.00 64 1020.7
20260906162016 22 180 8.0 12.9 0.00 0.00 0.00 65 1021.1
20260906161016 21 135 9.7 14.5 0.00 0.00 0.00 67 1020.8
20260906160016 21 158 9.7 17.7 0.00 0.00 0.00 68 1020.9
20260906155016 21 113 12.9 17.7 0.00 0.00 0.00 69 1020.4
20260906154016 20 135 11.3 17.7 0.00 0.00 0.00 70 1020.3
20260906153016 20 135 11.3 17.7 0.00 0.00 0.00 72 1020.0
20260906152016 20 135 14.5 22.5 0.00 0.00 0.00 71 1021.1
20260906151016 20 135 16.1 20.9 0.00 0.00 0.00 72 1021.1
20260906150016 20 135 11.3 19.3 0.00 0.00 0.00 72 1021.3
20260906145016 19 135 11.3 19.3 0.00 0.00 0.00 73 1021.9
20260906144016 19 135 11.3 19.3 0.00 0.00 0.00 74 1021.8
20260906143016 18 158 11.3 19.3 0.00 0.00 0.00 75 1021.6
20260906142016 18 180 11.3 19.3 0.00 0.00 0.00 76 1020.9
20260906141016 17 180 9.7 19.3 0.00 0.00 0.00 78 1020.9
20260906140016 17 180 11.3 19.3 0.00 0.00 0.00 78 1020.4
20260906135018 17 180 6.4 16.1 0.00 0.00 0.00 79 1021.4
20260906134018 16 180 6.4 11.3 0.00 0.00 0.00 82 1020.9
20260906133018 16 180 4.8 9.7 0.00 0.00 0.00 86 1021.0
20260906132017 15 203 3.2 6.4 0.00 0.00 0.00 88 1021.3
20260906131058 14 180 3.2 9.7 0.00 0.00 0.00 89 1020.8
20260906130038 13 180 3.2 8.0 0.00 0.00 0.00 87 1020.7
20260906125017 13 180 4.8 9.7 0.00 0.00 0.00 86 1021.0
20260906124018 13 180 6.4 12.9 0.00 0.00 0.00 87 1020.8
20260906123037 13 180 6.4 12.9 0.00 0.00 0.00 89 1020.8
20260906122018 13 180 3.2 6.4 0.00 0.00 0.00 89 1020.7
20260906121018 13 203 4.8 8.0 0.00 0.00 0.00 88 1020.8
20260906120037 13 203 4.8 8.0 0.00 0.00 0.00 88 1020.7
20260906115017 13 203 4.8 8.0 0.00 0.00 0.00 88 1020.7
20260906114017 13 203 4.8 8.0 0.00 0.00 0.00 87 1020.5
20260906113019 14 203 3.2 6.4 0.00 0.00 0.00 87 1020.7
20260906112018 15 180 1.6 6.4 0.00 0.00 0.00 86 1021.1
20260906111018 15 158 9.7 17.7 0.00 0.00 0.00 86 1021.1
20260906110018 16 158 6.4 11.3 0.00 0.00 0.00 85 1021.7
20260906105017 16 158 8.0 14.5 0.00 0.00 0.00 84 1022.1
20260906104118 16 158 4.8 9.7 0.00 0.00 0.00 84 1022.3
20260906103037 16 158 6.4 14.5 0.00 0.00 0.00 83 1022.2
20260906102037 16 135 9.7 14.5 0.00 0.00 0.00 84 1022.1
20260906101018 16 135 6.4 14.5 0.00 0.00 0.00 85 1022.2
20260906100038 16 180 8.0 14.5 0.00 0.00 0.00 85 1022.3
20260906095018 16 158 4.8 14.5 0.00 0.00 0.00 85 1022.1
20260906094037 16 158 6.4 11.3 0.00 0.00 0.00 85 1022.1
20260906093017 16 158 6.4 11.3 0.00 0.00 0.00 85 1022.0
20260906092017 16 135 4.8 9.7 0.00 0.00 0.00 85 1021.7
20260906091017 16 158 4.8 11.3 0.00 0.00 0.00 85 1021.7
20260906090017 16 180 4.8 8.0 0.00 0.00 0.00 85 1021.5
20260906085017 16 180 3.2 8.0 0.00 0.00 0.00 85 1022.0
20260906084017 15 180 3.2 6.4 0.00 0.00 0.00 85 1022.1
20260906083017 15 0.0 3.2 0.00 0.00 0.00 84 1022.3
20260906082018 15 203 3.2 4.8 0.00 0.00 0.00 85 1021.9
20260906081017 14 203 3.2 6.4 0.00 0.00 0.00 85 1021.9
20260906080037 14 225 4.8 6.4 0.00 0.00 0.00 81 1021.9
20260906075017 15 248 3.2 3.2 0.00 0.00 0.00 83 1021.3
20260906074017 15 248 3.2 6.4 0.00 0.00 0.00 82 1021.4
20260906073017 15 225 3.2 6.4 0.00 0.00 0.00 83 1021.6
20260906072017 15 225 4.8 8.0 0.00 0.00 0.00 83 1021.4
20260906071018 14 248 6.4 11.3 0.00 0.00 0.00 86 1021.4
20260906070037 14 248 4.8 6.4 0.00 0.00 0.00 85 1021.2
20260906065017 13 293 4.8 9.7 0.00 0.00 0.00 86 1020.6
20260906064017 13 225 3.2 4.8 0.00 0.00 0.00 86 1020.5
20260906063017 13 225 1.6 4.8 0.00 0.00 0.00 85 1020.3
20260906062037 14 203 3.2 4.8 0.00 0.00 0.00 84 1020.8
20260906061037 15 203 3.2 4.8 0.00 0.00 0.00 84 1021.3
20260906060017 15 0.0 0.0 0.00 0.00 0.00 85 1021.4
20260906055017 15 135 1.6 6.4 0.00 0.00 0.00 86 1021.1
20260906054017 15 0.0 1.6 0.00 0.00 0.00 85 1020.9
20260906053017 15 45 4.8 6.4 0.00 0.00 0.00 84 1020.9
20260906052157 15 0.0 1.6 0.00 0.00 0.00 82 1020.8
20260906051037 16 90 3.2 6.4 0.00 0.00 0.00 80 1021.0
20260906050017 16 68 6.4 11.3 0.00 0.00 0.00 80 1021.0
20260906045017 16 45 6.4 9.7 0.00 0.00 0.00 76 1021.0
20260906044017 16 68 4.8 6.4 0.00 0.00 0.00 76 1020.8
20260906043017 17 68 4.8 8.0 0.00 0.00 0.00 72 1020.8
20260906042017 17 68 3.2 4.8 0.00 0.00 0.00 64 1021.2
20260906041017 18 68 4.8 6.4 0.00 0.00 0.00 59 1021.5
20260906040017 18 23 4.8 16.1 0.00 0.00 0.00 55 1021.3
20260906035017 18 90 4.8 8.0 0.00 0.00 0.00 54 1020.8
20260906034017 17 90 4.8 17.7 0.00 0.00 0.00 52 1020.1
20260906033017 18 293 3.2 4.8 0.00 0.00 0.00 49 1019.8
20260906032017 19 293 6.4 9.7 0.00 0.00 0.00 46 1019.7
20260906031017 20 68 3.2 4.8 0.00 0.00 0.00 49 1020.2
20260906030017 21 45 4.8 8.0 0.00 0.00 0.00 45 1020.5
20260906025017 22 0 1.6 3.2 0.00 0.00 0.00 39 1019.9
20260906024017 23 315 3.2 6.4 0.00 0.00 0.00 36 1020.3
20260906023017 24 293 1.6 3.2 0.00 0.00 0.00 42 1021.0
20260906022037 25 315 3.2 6.4 0.00 0.00 0.00 35 1020.4
20260906021016 25 90 8.0 14.5 0.00 0.00 0.00 35 1020.3
20260906020017 23 113 6.4 12.9 0.00 0.00 0.00 40 1019.6
20260906015017 23 293 8.0 12.9 0.00 0.00 0.00 37 1018.3
20260906014036 23 293 8.0 11.3 0.00 0.00 0.00 36 1018.6
20260906013018 24 293 9.7 12.9 0.00 0.00 0.00 35 1018.6
20260906012117 25 293 12.9 17.7 0.00 0.00 0.00 33 1018.6
20260906011016 26 338 1.6 3.2 0.00 0.00 0.00 35 1018.8
20260906010017 26 338 3.2 4.8 0.00 0.00 0.00 34 1019.3
20260906005017 27 338 3.2 4.8 0.00 0.00 0.00 32 1018.6
20260906004017 28 338 4.8 8.0 0.00 0.00 0.00 29 1019.0
20260906003016 28 23 4.8 9.7 0.00 0.00 0.00 29 1018.9
20260906002037 27 23 4.8 6.4 0.00 0.00 0.00 30 1018.5
20260906001056 28 0 3.2 4.8 0.00 0.00 0.00 29 1018.5
20260906000017 28 0 4.8 8.0 0.00 0.00 0.00 28 1018.5
20260905235016 28 23 4.8 8.0 0.00 0.00 0.00 27 1018.5
20260905234017 28 338 8.0 14.5 0.00 0.00 0.00 27 1018.4
20260905233016 28 338 4.8 9.7 0.00 0.00 0.00 27 1018.4
20260905232016 29 0 8.0 14.5 0.00 0.00 0.00 27 1018.6
20260905231017 28 45 8.0 17.7 0.00 0.00 0.00 27 1018.8
20260905230016 29 68 8.0 19.3 0.00 0.00 0.00 26 1018.9
20260905225016 29 0 3.2 6.4 0.00 0.00 0.00 26 1018.3
20260905224016 30 68 9.7 19.3 0.00 0.00 0.00 26 1018.3
20260905223016 30 68 12.9 20.9 0.00 0.00 0.00 26 1018.2
20260905222017 30 68 9.7 17.7 0.00 0.00 0.00 25 1018.9
20260905221036 31 45 16.1 25.7 0.00 0.00 0.00 25 1019.0
20260905220016 31 23 12.9 20.9 0.00 0.00 0.00 24 1019.0
20260905215016 30 45 9.7 20.9 0.00 0.00 0.00 24 1019.4
20260905214036 31 45 12.9 20.9 0.00 0.00 0.00 24 1019.6